Wind_Speed
45 46 47 48 49 49 48 48 47 45 42 40 39 38 38 38 38 38 39 39 40 40 41 40 39 39 41 41 41 41 41 41 41 41 41 41 41 41 41 43 43 42 41 41 40 40 41 41 41 42 45 47 47 48 50 51 53 52 48 46 44 41 39 37 34 35 38 39 38 38 38 37 36 36 36 36 36 36 36 37 37 38 38 38 38
45 47 48 48 49 49 49 48 48 45 42 40 39 39 39 39 40 40 40 39 39 39 40 39 37 37 38 39 39 39 39 39 39 40 40 40 41 41 40 41 42 41 41 42 42 41 42 42 42 42 45 47 47 47 48 51 53 54 52 48 46 44 41 38 36 36 39 41 40 39 38 37 36 36 35 35 36 36 36 37 37 38 38 38 38
46 47 48 49 49 49 48 47 46 44 41 40 39 39 40 40 40 40 39 39 38 38 37 35 34 34 34 36 37 37 37 37 37 38 39 39 40 40 39 39 39 39 40 42 43 42 42 42 42 43 45 47 47 46 47 50 53 55 54 50 48 46 42 39 39 38 39 42 42 40 38 36 35 36 35 35 35 35 35 36 37 37 38 38 38
46 48 49 50 50 48 46 45 44 42 41 40 40 39 40 39 38 37 37 37 36 35 34 32 31 31 31 33 35 35 35 35 35 36 37 38 39 38 37 37 37 37 38 41 42 42 42 41 41 42 45 47 47 46 46 49 53 54 55 52 51 49 45 42 41 40 40 42 42 40 38 37 36 35 35 35 35 35 34 34 35 36 37 38 38
46 48 49 50 50 47 45 43 42 41 40 39 39 39 38 37 36 35 34 34 34 33 32 31 29 28 29 30 33 34 33 33 33 33 34 36 36 35 35 34 35 36 37 38 40 41 42 41 39 41 45 47 46 45 46 48 51 54 55 53 52 51 48 45 43 42 41 40 40 40 39 38 36 34 34 34 34 34 33 33 34 35 36 37 38
47 48 49 49 48 45 43 42 40 39 38 38 37 37 36 35 34 33 33 33 32 30 30 29 28 27 28 30 30 31 31 31 32 31 31 32 32 33 33 33 33 34 35 35 37 39 41 41 39 40 44 46 46 44 44 46 48 52 54 55 54 52 50 47 46 44 42 39 40 41 39 37 36 34 34 33 33 32 31 32 33 34 35 36 37
47 48 48 47 46 44 42 40 38 37 36 36 35 34 34 33 32 32 32 31 29 28 27 26 25 24 26 28 27 27 28 30 30 29 28 28 29 31 31 31 32 33 34 34 35 37 39 40 40 40 43 47 47 44 43 45 47 49 53 55 55 54 52 50 48 47 44 41 40 41 40 38 36 35 33 32 30 29 30 31 31 31 32 33 35
46 46 46 46 44 42 40 39 36 35 35 34 33 32 32 32 31 32 31 28 27 27 26 24 23 23 24 25 24 23 25 27 28 28 27 26 26 28 30 30 31 32 34 34 35 37 38 39 40 40 42 47 49 46 44 45 46 47 50 54 57 57 55 52 51 50 48 44 41 40 40 40 36 35 34 30 27 27 30 31 30 29 30 31 33
46 45 45 44 42 40 39 37 35 34 34 33 32 31 31 31 31 32 29 26 26 26 24 22 22 22 23 22 18 17 19 22 24 25 25 25 25 25 27 29 30 31 33 34 36 37 38 39 39 40 42 47 51 49 46 46 46 45 46 50 55 58 56 52 50 50 49 47 42 39 40 40 37 35 34 30 27 29 31 31 29 29 30 29 29
46 44 43 42 40 39 39 37 34 34 33 32 31 31 30 30 31 31 28 25 25 23 21 20 20 20 21 19 15 14 16 17 18 21 23 24 24 24 25 27 29 30 31 33 34 36 37 39 39 39 42 47 52 51 48 48 48 45 43 45 49 52 52 51 48 47 48 47 43 41 40 40 39 37 35 33 32 31 32 31 30 29 29 28 27
45 44 42 41 39 38 39 37 34 32 32 30 29 30 31 30 30 30 28 25 24 22 21 20 20 19 17 15 14 14 15 16 16 17 20 21 23 24 25 27 28 29 30 32 33 35 36 38 38 38 41 46 51 52 50 49 50 49 45 44 45 47 48 48 45 44 45 46 44 43 42 40 41 40 38 36 34 33 33 32 30 29 29 28 28
45 44 42 40 37 37 37 36 33 31 30 29 28 29 31 31 31 30 29 27 25 24 23 23 22 19 15 14 15 16 15 16 16 17 18 19 22 24 24 26 27 29 30 30 31 31 32 34 36 37 39 44 49 51 50 49 49 49 48 46 45 46 47 46 45 44 44 44 44 44 43 41 43 43 41 39 37 35 34 32 30 29 30 29 29
45 43 41 38 35 34 34 32 30 30 30 28 27 28 30 30 31 30 29 27 26 25 25 24 22 18 15 15 16 17 17 17 18 18 18 19 21 22 23 24 25 27 28 27 27 26 26 28 31 34 38 42 46 50 51 49 47 48 49 48 45 45 45 45 45 45 44 44 45 45 43 43 44 44 43 42 41 38 35 32 31 31 30 29 29
44 42 39 35 33 32 31 30 30 30 30 28 27 28 29 30 30 30 29 27 27 26 24 21 19 16 14 15 16 17 18 18 18 19 19 20 19 19 20 21 21 24 26 26 26 26 25 25 26 29 34 40 44 47 48 48 48 47 48 48 45 42 42 42 43 44 44 43 44 44 43 43 44 44 44 43 42 39 35 34 33 32 30 31 30
43 40 37 33 32 31 31 32 31 31 30 29 28 27 28 29 29 29 28 27 26 25 22 19 17 14 13 13 15 17 19 19 19 19 19 19 17 16 18 20 21 22 25 25 23 23 23 23 23 25 30 36 41 45 46 47 48 48 48 47 45 42 41 40 40 41 41 41 42 43 44 45 46 47 47 45 41 38 36 35 35 33 32 33 32
43 41 37 34 32 31 31 32 33 32 31 30 28 27 27 28 28 27 27 26 25 23 20 17 16 14 11 11 14 17 20 20 19 19 18 17 16 17 18 20 20 21 24 25 22 20 21 21 22 23 25 30 36 42 45 46 47 48 49 48 47 45 44 42 42 41 40 40 42 44 46 48 49 49 49 46 41 38 38 38 37 36 36 36 36
42 41 39 36 33 31 30 31 32 32 31 29 27 26 26 27 27 26 25 25 24 22 19 17 16 15 12 10 11 15 19 21 20 18 18 15 15 17 17 17 19 20 21 22 21 19 21 21 21 22 22 24 30 36 42 45 46 48 49 50 50 49 46 45 44 42 42 43 44 46 49 50 50 50 49 46 43 42 42 41 40 38 38 39 40
43 42 40 37 33 30 29 30 31 31 30 28 26 24 24 25 25 24 24 23 22 21 19 17 16 16 15 13 13 12 15 19 21 17 15 12 11 12 10 11 16 19 19 21 20 18 19 20 21 22 23 22 25 30 37 43 46 47 48 50 51 49 46 45 44 45 46 47 48 50 51 50 49 49 49 48 47 46 45 44 43 40 39 40 41
44 43 40 36 32 30 29 29 30 31 29 28 26 23 23 23 23 23 23 21 20 20 19 17 17 17 17 16 16 11 10 14 17 16 12 8 9 11 9 7 12 16 16 18 20 18 17 19 21 23 23 23 24 28 33 39 44 46 47 49 49 47 46 45 45 47 48 48 49 49 49 49 49 50 50 50 49 48 46 46 44 41 40 40 39
43 41 38 34 30 29 29 29 30 30 29 28 26 23 22 22 21 22 22 21 19 18 18 18 18 19 18 18 17 14 9 9 9 13 11 11 13 13 11 10 15 19 15 12 17 19 18 19 21 22 24 25 25 25 29 34 39 42 45 47 48 47 47 47 46 47 47 47 47 47 48 51 52 51 50 50 50 49 47 45 44 41 39 38 36
41 38 35 32 30 29 29 29 30 29 28 26 24 22 22 21 20 20 21 21 18 17 18 19 19 20 20 20 18 16 13 9 6 8 11 16 18 15 10 10 16 23 21 14 16 18 19 22 24 25 26 26 23 23 26 29 32 36 40 43 45 46 46 45 43 43 43 43 43 45 47 50 50 50 50 49 48 50 48 45 42 40 38 36 36
39 38 35 32 30 29 28 28 28 27 25 24 22 21 21 21 20 19 20 20 19 17 17 19 21 21 22 22 20 17 17 14 9 6 7 14 21 20 14 10 13 19 22 18 16 16 18 25 29 27 26 26 28 30 29 25 26 30 34 37 41 42 42 42 41 40 41 42 44 47 48 47 46 48 50 49 49 50 48 43 40 38 38 38 37
38 38 36 32 30 29 28 26 25 24 22 21 21 20 21 20 19 19 19 19 18 16 16 17 20 21 22 23 23 20 18 17 14 10 7 7 14 19 18 15 14 14 16 16 15 16 18 25 29 27 26 29 33 33 30 30 31 33 34 36 39 40 41 42 41 40 40 43 45 48 48 46 45 46 49 50 50 48 45 41 38 38 38 37 36
37 37 35 31 29 29 27 24 22 21 21 21 21 21 20 20 19 19 18 18 18 17 15 15 17 19 20 22 23 22 20 18 17 15 11 7 7 10 15 17 16 14 13 12 12 14 17 19 22 24 26 32 35 32 30 34 37 35 34 36 38 40 42 42 41 41 42 44 45 45 48 51 51 50 50 49 46 44 41 39 37 37 36 35 35
36 35 34 31 28 28 26 23 21 20 20 20 21 21 20 20 19 18 18 17 17 17 15 14 15 16 18 19 21 21 20 19 18 16 14 10 7 6 8 15 18 16 13 12 12 13 16 17 18 20 23 28 33 34 34 36 37 36 35 36 36 38 39 40 41 43 44 45 46 44 44 49 52 52 50 45 40 38 38 36 35 36 36 35 35
35 34 33 30 27 27 27 24 21 20 19 20 20 20 20 19 18 18 17 17 17 16 16 15 15 15 16 17 18 20 21 20 18 17 15 12 8 6 5 8 15 17 15 13 12 13 15 16 16 19 21 24 29 33 34 34 34 35 36 38 38 40 41 41 43 43 40 40 42 41 40 42 45 45 42 38 35 35 34 34 35 36 36 36 35
34 33 32 29 26 26 26 24 22 21 19 19 19 20 19 19 18 18 17 17 17 16 16 15 15 15 15 16 16 18 20 20 19 17 15 14 10 8 6 6 8 13 16 16 15 13 14 16 16 16 17 20 23 27 29 30 29 29 31 33 35 37 39 41 45 45 39 35 34 33 32 35 36 36 34 34 34 34 33 34 36 36 37 38 36
35 33 32 29 26 25 25 23 21 20 20 19 20 20 20 19 19 18 17 17 17 17 16 15 16 16 15 15 16 16 18 20 20 18 16 14 12 10 10 8 6 7 11 16 18 16 15 16 17 16 18 19 19 19 20 22 24 25 26 27 29 30 32 35 40 43 41 35 32 31 31 31 31 29 29 30 30 32 33 34 36 38 39 40 39
37 33 30 29 26 25 24 23 21 20 20 19 20 20 19 20 20 20 18 17 16 17 17 16 15 15 15 15 16 16 17 18 20 20 18 15 13 11 11 10 9 8 8 11 15 18 17 17 17 17 18 19 19 18 18 18 19 20 21 22 23 26 29 31 35 39 39 36 35 36 36 35 33 32 32 32 31 32 33 34 36 39 41 42 42
36 31 27 26 25 24 24 23 22 21 20 20 20 20 20 20 20 20 19 17 16 15 16 16 15 15 15 15 16 16 16 17 18 20 20 18 16 14 12 11 11 11 10 9 11 14 16 18 19 19 19 19 20 20 21 21 21 21 21 20 20 22 25 29 32 37 39 38 37 37 36 35 33 32 32 33 34 34 34 35 37 39 41 43 44
30 27 24 23 22 22 23 22 22 22 22 21 21 22 22 22 20 19 18 17 16 15 15 16 15 15 15 14 14 15 16 16 17 18 20 20 18 16 15 13 12 11 11 11 11 11 12 14 16 17 18 19 20 22 23 24 25 25 25 25 24 23 25 27 29 35 40 40 37 35 35 36 35 34 34 35 35 36 36 37 37 38 40 42 42
26 25 23 20 20 21 21 21 22 22 21 20 20 21 23 23 22 20 18 16 16 16 16 17 17 15 15 14 14 14 15 15 16 16 18 19 20 19 17 16 15 14 13 12 11 11 11 11 12 12 13 14 16 19 22 24 27 28 28 28 29 28 28 28 29 33 37 38 37 35 36 37 38 39 39 38 37 36 35 35 35 35 37 38 39
27 25 23 20 19 20 20 20 21 20 20 19 19 20 21 22 22 22 20 18 16 16 16 17 18 17 16 15 14 14 14 14 14 15 16 17 18 19 19 18 17 16 15 14 13 12 11 11 12 12 12 12 12 14 16 19 23 25 27 28 30 31 32 33 32 33 35 37 38 38 38 37 38 39 40 40 39 37 36 36 37 36 36 37 37
26 23 22 20 20 20 21 21 21 21 21 21 20 21 22 22 22 21 21 19 17 16 16 17 18 18 18 17 16 16 15 15 14 14 14 15 17 18 18 18 18 18 17 16 15 14 13 12 12 13 13 14 14 14 14 15 16 18 19 21 23 26 29 31 33 34 36 37 38 39 40 40 40 40 40 39 39 39 39 39 40 40 39 39 40
24 21 21 21 21 21 21 21 21 22 23 23 22 22 22 23 22 21 20 20 19 19 19 19 18 18 19 19 18 18 17 17 16 15 14 15 16 16 17 18 18 18 18 18 18 17 16 15 14 14 14 14 14 15 15 16 16 16 16 16 17 18 21 23 25 28 30 32 33 34 35 36 38 39 39 38 37 37 38 38 39 40 41 42 43
21 20 21 22 23 23 22 22 22 23 24 24 23 23 22 22 23 22 21 22 22 23 23 23 22 20 19 19 19 19 18 18 17 17 16 16 16 16 16 16 17 18 19 19 19 19 19 18 18 17 16 16 16 16 16 16 17 17 18 18 19 19 19 18 19 20 21 22 23 23 23 25 28 30 32 32 32 32 33 34 35 37 38 39 40
21 21 23 24 25 25 25 24 23 23 24 24 24 23 23 23 23 23 23 24 24 24 23 23 22 21 20 19 19 19 19 18 17 17 17 17 17 17 17 17 17 17 18 19 20 20 20 21 20 20 19 19 19 19 19 18 19 19 19 20 20 21 21 21 20 20 19 19 20 21 21 22 23 24 25 26 26 27 28 29 30 31 32 33 34
23 22 21 22 24 25 24 23 23 23 23 24 24 23 23 24 24 25 25 24 24 23 22 21 21 22 21 20 20 20 20 19 18 18 18 18 19 19 19 19 19 18 18 19 20 21 21 22 23 23 22 22 21 22 22 21 21 21 22 22 22 23 24 24 24 23 23 23 23 24 24 25 25 26 27 27 27 27 28 28 28 28 28 29 29
24 22 19 18 21 22 21 21 22 22 22 23 23 23 23 24 25 26 25 24 23 23 22 21 21 22 22 22 21 21 20 19 19 19 19 19 20 20 21 21 21 21 21 20 21 21 22 23 24 25 25 25 25 25 24 24 24 24 24 24 25 26 26 26 27 27 27 27 27 28 28 28 29 29 30 30 30 31 30 30 30 30 30 30 30
23 21 19 18 19 21 22 21 21 21 22 22 23 23 24 25 25 25 25 25 24 23 22 22 21 21 20 20 20 20 20 19 19 19 19 19 20 21 22 22 23 23 23 23 23 23 23 24 24 25 26 27 28 28 28 28 28 27 27 26 27 28 28 29 29 29 29 30 30 30 31 32 32 33 33 34 34 34 34 34 34 33 33 34 34
22 21 20 20 21 22 23 22 22 23 23 23 23 24 24 24 24 24 24 24 24 23 22 22 21 21 20 20 20 20 21 21 21 21 21 20 21 21 22 23 24 25 26 26 25 25 26 26 26 26 26 27 29 30 31 32 32 32 31 30 29 29 30 30 31 32 32 32 32 33 33 33 34 35 36 36 37 37 37 37 37 37 37 37 37
24 23 22 22 23 24 24 24 25 25 24 24 24 24 25 24 24 24 24 24 24 24 23 23 22 22 22 22 22 23 23 24 24 25 25 24 24 24 23 24 25 26 27 28 29 29 29 29 29 29 28 28 29 29 30 31 33 34 34 34 34 34 33 33 33 33 34 34 34 35 35 35 35 35 36 37 38 38 39 39 39 39 39 40 40
23 24 24 24 24 24 24 24 25 25 25 25 25 25 25 25 25 25 25 25 25 25 25 25 24 24 25 25 26 26 27 28 28 29 29 29 29 28 27 26 26 26 27 29 30 31 31 32 32 32 33 32 32 32 32 33 34 35 35 36 36 37 37 37 37 37 36 36 36 37 37 37 37 37 37 37 38 38 39 40 40 41 41 41 42
22 24 24 23 23 23 23 23 23 23 23 24 24 24 24 25 25 25 25 25 26 26 26 27 27 28 28 29 30 30 31 31 32 32 32 32 32 32 31 30 29 28 28 29 30 31 33 33 34 34 35 36 36 37 37 37 37 38 38 38 38 38 39 40 40 40 40 39 39 39 39 40 40 40 40 39 39 39 40 40 41 41 42 43 43
22 23 23 22 22 23 23 23 23 22 22 22 23 23 24 25 25 26 26 26 27 27 28 29 30 31 32 33 33 34 34 34 35 35 35 35 34 34 34 33 33 32 32 31 31 31 32 34 35 37 37 38 38 39 39 39 39 40 40 41 41 41 41 41 42 42 42 42 43 43 43 43 43 43 42 42 42 42 42 42 42 43 44 44 45
22 23 23 23 24 24 25 24 24 23 23 23 24 25 26 27 28 28 28 29 29 30 31 32 32 33 33 34 35 36 36 36 37 37 37 37 37 36 36 35 35 35 35 35 34 34 33 34 36 37 39 40 41 42 42 42 42 41 42 43 43 43 43 43 43 43 43 43 44 44 46 46 47 47 46 45 45 45 45 45 45 45 45 46 46
24 24 25 25 26 26 26 25 25 25 25 26 27 28 29 29 29 30 30 31 31 32 32 32 33 33 34 35 35 36 37 37 38 38 38 38 39 39 38 37 37 37 38 38 38 38 37 37 37 38 39 40 42 43 44 44 44 44 44 44 44 44 44 43 42 42 42 41 42 43 44 46 47 49 50 50 49 49 48 48 48 48 48 48 48
26 27 27 27 27 27 27 27 27 27 27 28 29 29 29 29 30 30 31 32 32 33 33 34 34 35 36 36 37 38 38 39 40 40 40 40 41 41 41 41 40 40 40 41 41 41 40 40 40 40 40 40 42 43 44 45 46 46 46 46 46 45 44 43 43 42 42 41 41 41 41 43 45 47 49 51 52 52 52 52 51 51 51 51 50
26 27 27 27 27 28 28 28 28 28 29 29 29 30 30 31 32 32 33 34 34 35 36 36 37 38 38 39 40 40 41 42 42 43 43 43 44 44 44 44 44 44 44 44 44 44 44 44 43 43 43 43 43 43 44 45 46 47 47 47 48 47 46 45 45 46 45 45 44 43 42 43 43 43 45 48 51 52 54 55 55 54 54 54 53
25 26 27 27 28 28 29 29 29 29 29 30 31 32 33 33 34 34 35 36 37 37 38 39 40 40 41 41 42 43 43 44 45 46 46 47 47 47 47 47 47 47 48 48 47 47 47 46 46 46 45 45 46 46 46 46 46 47 48 49 49 49 49 48 49 50 49 49 49 48 46 45 43 43 46 49 51 51 52 53 54 54 55 55 55
25 26 27 27 28 29 30 31 31 31 31 32 33 34 35 36 37 38 38 39 39 40 40 41 42 42 43 43 44 44 45 45 46 46 47 47 48 48 48 49 49 49 49 49 49 49 48 48 47 47 47 47 47 48 48 48 48 48 49 50 51 51 52 53 54 54 53 52 52 51 49 47 47 49 52 53 53 52 51 50 50 50 52 53 54
Wind_Direction
322 321 319 318 318 319 319 319 317 315 312 310 308 305 303 300 298 295 293 292 292 292 291 288 283 276 271 268 267 267 266 265 263 260 257 255 255 255 254 253 252 250 248 246 245 246 247 246 244 242 241 242 241 240 241 238 233 229 229 231 233 234 234 235 237 238 240 242 242 242 243 243 244 244 245 246 248 249 251 251 251 253 254 255 256
322 320 319 319 319 319 319 319 317 315 312 310 308 306 304 301 299 296 294 293 293 293 291 289 286 280 275 271 268 268 268 266 264 262 259 257 256 256 254 252 251 250 248 246 245 245 245 244 244 242 240 240 239 238 239 237 233 230 228 229 232 234 234 235 235 236 238 240 240 241 242 243 243 243 244 244 246 248 250 251 252 252 254 255 255
320 319 319 319 319 319 319 318 316 314 312 311 309 308 305 303 300 298 297 296 295 292 289 286 283 279 276 273 271 269 268 266 263 261 259 257 257 258 255 251 250 249 246 245 244 243 242 241 242 241 239 238 237 237 237 237 234 230 227 228 230 232 233 233 233 234 236 238 238 239 243 244 243 243 245 245 246 247 248 250 250 250 251 253 254
319 318 318 318 318 319 319 318 316 314 313 312 311 310 308 306 303 301 300 299 296 292 287 282 279 276 273 274 273 270 267 264 261 259 257 255 254 255 253 250 249 249 246 243 241 239 238 239 240 239 237 236 235 235 236 236 234 231 228 228 229 231 232 232 231 232 233 237 240 239 241 243 242 243 245 246 247 248 249 250 250 248 248 250 252
317 317 316 316 317 319 319 317 315 314 313 312 312 312 311 310 308 306 304 302 298 293 287 281 277 273 272 274 274 269 265 261 260 259 257 254 252 250 248 247 247 247 244 241 239 236 236 238 239 238 235 233 234 235 235 236 234 231 229 229 229 229 231 231 231 231 232 235 240 240 238 238 239 241 245 246 247 249 251 252 250 249 248 248 250
316 315 315 315 316 319 319 316 315 314 312 313 315 315 314 312 311 309 306 303 301 296 289 284 279 274 274 278 274 264 259 258 258 258 255 252 250 249 247 245 244 243 242 241 238 235 235 237 240 240 237 233 233 234 234 233 231 229 228 228 228 227 228 230 230 230 231 232 236 240 239 237 237 240 244 245 247 249 250 251 250 249 249 250 250
314 313 313 314 316 318 318 316 314 313 312 315 318 318 316 313 312 311 309 306 302 298 294 289 283 278 280 285 277 261 254 254 254 253 250 248 249 249 247 244 242 240 240 240 237 234 235 237 239 241 239 236 234 234 233 229 226 226 227 228 228 225 226 228 229 230 230 230 233 239 241 238 236 238 242 243 244 245 246 247 248 250 251 251 251
313 313 314 315 317 318 317 315 314 313 313 316 320 320 317 314 313 313 312 309 303 299 296 293 288 284 285 287 280 266 257 252 249 247 244 245 247 247 245 242 240 239 239 239 238 237 238 239 240 239 238 236 235 234 231 226 223 225 227 228 227 225 224 227 229 230 230 230 232 236 240 240 236 235 238 240 239 240 242 244 246 250 252 252 253
314 315 315 316 318 318 317 316 315 313 313 317 321 321 318 314 313 313 314 311 304 300 299 296 291 288 286 283 278 274 263 251 243 239 238 240 244 245 244 243 242 240 240 240 240 241 243 243 242 238 235 234 234 233 230 225 221 222 225 224 223 221 222 226 229 230 230 230 232 235 239 241 238 234 234 235 235 235 239 241 243 248 253 254 254
317 317 317 318 319 319 317 316 313 312 313 316 320 322 321 317 313 313 314 310 304 304 306 305 298 291 284 277 275 280 274 262 251 243 238 238 241 244 247 247 245 243 241 241 242 244 245 244 242 238 233 232 232 231 228 225 220 218 218 218 217 217 219 224 229 230 231 231 232 234 237 239 240 236 232 232 234 235 239 241 242 247 253 255 255
317 318 318 319 320 320 318 316 312 311 312 315 320 323 323 320 315 313 314 309 301 303 309 310 306 299 288 279 279 282 279 273 269 260 250 244 242 244 248 252 252 248 243 240 241 243 244 242 239 237 234 231 230 229 227 224 221 219 219 219 219 219 221 225 228 230 231 231 231 233 234 236 238 236 232 232 235 237 239 241 243 248 252 253 254
318 318 318 319 320 319 319 317 312 310 311 313 319 322 323 322 317 314 315 312 302 298 299 300 302 301 297 291 289 288 283 276 273 269 261 253 248 246 250 256 258 255 248 242 241 242 243 242 238 235 233 231 229 228 226 225 224 223 223 223 223 223 225 227 229 231 231 231 231 231 231 232 234 235 235 234 234 236 239 241 244 248 249 250 252
318 317 317 317 318 318 319 319 314 311 310 312 316 320 321 323 320 316 315 314 309 301 296 293 294 293 295 298 294 292 288 277 269 266 262 256 251 251 255 258 256 253 248 244 242 243 245 245 241 236 234 231 229 227 226 225 225 222 220 222 224 225 228 230 230 231 231 231 231 230 228 229 231 233 235 235 234 236 239 240 242 245 246 247 250
316 316 315 315 316 315 316 317 316 313 310 310 313 317 319 321 321 318 315 314 312 307 299 295 295 291 291 301 302 295 290 280 268 263 260 255 252 253 260 263 256 246 243 245 246 245 245 246 242 237 234 231 229 228 226 225 224 221 218 220 223 226 229 231 229 230 231 232 232 230 228 228 229 232 235 235 234 237 238 238 240 243 243 243 247
314 315 314 313 314 313 311 311 312 312 310 308 309 314 316 319 320 318 315 314 312 310 303 299 301 297 293 303 307 297 288 280 270 262 259 255 249 248 258 267 262 249 246 249 249 243 242 244 243 239 235 231 228 227 225 223 224 222 220 221 223 225 228 229 228 227 229 230 231 230 228 228 228 230 233 234 234 236 237 236 238 241 241 242 246
314 315 314 313 313 312 310 309 309 309 309 307 308 311 314 316 317 316 315 314 311 310 307 304 308 306 297 299 302 296 289 283 273 264 259 253 243 241 255 266 263 255 253 254 252 247 245 244 242 240 237 232 228 226 223 222 223 224 223 223 225 227 227 227 227 225 225 227 228 227 227 228 229 230 232 233 234 235 236 237 239 241 241 242 245
314 314 313 312 312 312 311 309 308 307 306 305 307 310 311 313 314 314 315 314 312 312 312 312 314 311 297 283 287 294 292 285 277 267 260 253 243 245 261 271 264 256 254 253 251 250 247 240 237 237 236 230 226 224 222 221 222 224 225 224 226 228 228 228 227 225 225 226 227 227 227 229 231 232 232 233 234 235 236 238 240 241 241 243 245
312 311 310 309 310 310 309 307 305 303 302 302 305 308 309 310 311 312 313 314 312 311 312 314 315 311 301 283 275 291 299 288 279 269 260 256 250 247 259 272 262 255 253 250 246 245 242 234 230 231 230 228 224 221 220 220 221 223 224 225 226 228 229 229 228 226 226 227 228 229 231 233 235 235 234 233 234 236 236 238 240 240 241 243 246
311 311 310 307 306 306 306 303 301 298 297 298 302 305 305 307 309 310 311 313 311 307 307 310 310 309 307 294 276 281 314 305 283 268 257 236 215 212 211 234 251 250 246 236 227 227 231 228 228 230 227 226 225 222 220 220 222 224 224 225 225 226 227 228 227 227 228 229 229 231 233 235 236 236 235 233 233 234 235 237 239 239 240 243 245
312 313 311 306 303 302 302 300 298 295 294 295 299 302 302 304 307 307 309 312 311 305 301 302 305 305 307 305 288 276 306 328 290 262 246 204 191 204 220 235 243 245 244 214 197 206 215 214 218 224 225 224 224 223 222 221 222 224 225 225 225 224 225 226 226 227 228 228 230 232 235 238 237 235 234 232 231 233 234 235 236 237 239 242 242
313 313 311 307 302 300 300 299 298 296 293 293 296 299 299 301 305 306 306 309 311 306 297 295 300 302 303 308 302 283 288 316 309 263 239 213 207 215 232 246 244 245 246 223 190 196 205 203 204 209 212 216 218 219 220 222 224 225 224 225 225 224 225 226 225 227 228 228 229 230 232 236 236 234 234 232 229 230 231 232 232 233 235 236 235
313 311 311 309 304 301 301 301 299 296 293 291 294 297 297 300 305 306 304 306 309 309 300 292 294 298 299 304 307 296 289 298 307 295 257 229 223 223 229 249 251 246 246 234 208 196 193 192 197 202 203 202 208 216 216 216 223 226 223 224 225 224 225 224 220 221 226 227 228 229 231 235 236 233 232 230 225 224 226 226 226 229 232 234 234
312 310 310 309 305 302 301 300 299 295 293 293 295 297 298 300 305 306 303 302 304 307 305 296 292 294 296 299 304 303 297 296 299 302 303 266 239 232 234 242 246 247 248 239 225 215 200 186 186 194 198 196 203 216 213 205 214 222 219 220 222 220 221 221 217 218 223 226 228 230 230 231 231 231 232 229 222 220 221 221 223 227 231 234 235
312 309 307 307 305 301 299 299 297 293 294 296 298 299 301 302 304 305 303 300 300 302 304 303 298 296 296 298 302 304 303 300 299 298 301 306 283 252 240 235 234 242 250 248 240 234 226 209 193 192 195 196 204 216 214 207 214 222 220 219 220 218 219 220 219 220 223 225 228 229 229 230 231 234 234 228 220 217 218 219 224 228 230 232 234
313 309 305 304 304 300 296 294 293 291 293 297 299 301 303 304 304 304 301 298 298 298 299 301 302 301 301 301 304 306 306 304 303 302 299 300 310 307 260 236 234 239 247 255 257 247 240 239 228 216 212 206 206 213 214 211 215 222 222 223 224 222 222 221 220 222 225 226 226 228 230 232 233 232 229 223 219 219 219 220 227 230 230 232 233
312 308 303 302 303 299 294 291 290 291 292 295 298 301 303 304 304 304 302 298 296 296 295 294 296 299 302 305 306 308 309 307 305 305 304 299 298 317 313 259 246 245 244 247 252 247 239 239 236 230 228 220 213 212 214 214 216 220 222 224 225 225 225 222 221 222 223 223 224 224 224 224 222 220 218 217 219 222 222 225 230 232 231 232 232
310 306 301 299 299 296 293 290 290 291 291 291 293 297 299 302 304 305 305 302 297 295 294 291 290 293 297 302 305 307 309 309 307 304 304 304 297 287 292 290 265 251 245 242 242 238 232 227 222 216 214 212 212 213 215 217 218 219 220 221 222 224 225 226 227 224 218 215 221 225 226 224 222 221 219 218 220 223 225 228 231 231 230 231 231
307 302 297 296 295 292 290 290 289 289 289 288 291 295 297 299 301 302 304 303 300 297 296 293 289 288 290 294 300 304 306 308 308 306 303 303 303 290 279 282 280 253 241 240 239 235 226 219 215 208 200 196 198 202 207 211 213 214 217 219 221 221 222 225 225 219 211 209 214 219 223 227 230 231 229 226 227 229 230 231 232 230 228 229 231
303 297 292 292 292 289 287 288 287 286 286 287 290 294 295 296 297 297 299 302 301 299 298 298 294 291 289 289 292 297 301 303 306 308 306 303 303 299 289 284 278 265 250 240 237 235 230 223 218 214 209 204 201 202 203 205 207 211 215 218 222 222 221 221 218 212 207 209 211 212 215 220 223 225 225 223 224 227 231 234 234 232 229 229 232
297 290 287 288 290 288 287 287 286 285 285 285 287 288 289 289 291 293 295 298 300 299 298 300 299 297 293 290 288 288 291 294 297 303 307 307 305 303 299 292 283 274 269 262 250 242 236 229 224 223 221 219 217 214 213 210 209 209 211 213 219 222 222 222 219 212 210 212 214 214 217 220 221 221 221 219 219 223 227 231 233 234 233 232 233
293 285 283 285 286 285 284 284 284 283 282 282 284 285 285 285 286 287 290 292 294 297 297 297 297 297 295 293 289 285 284 285 287 291 297 302 306 307 305 300 293 285 279 277 273 266 254 241 233 228 224 222 219 218 218 218 216 214 214 213 215 216 217 221 221 215 212 213 216 217 219 223 225 226 227 227 226 228 231 232 233 234 235 235 236
293 284 282 283 281 281 282 282 282 282 281 282 283 284 284 286 286 285 284 283 284 287 289 290 290 291 291 290 289 287 285 283 283 283 286 290 295 301 304 304 301 296 291 288 287 287 281 271 262 253 243 234 226 220 217 216 215 215 215 216 216 216 216 217 219 218 216 218 220 220 219 222 227 230 233 234 235 235 237 238 239 239 239 239 240
290 281 279 282 281 280 281 282 282 283 283 283 284 283 282 283 284 284 282 281 278 277 279 281 283 285 285 285 286 286 286 285 283 282 280 280 282 287 292 297 299 299 297 293 291 290 290 288 285 283 279 271 259 244 231 221 215 212 211 211 213 215 217 217 218 219 219 221 224 226 226 227 230 232 232 232 232 233 234 237 239 241 242 244 244
286 276 277 284 286 283 281 280 280 282 283 282 280 278 277 277 280 282 283 283 282 281 279 278 278 280 282 283 285 286 286 286 284 282 280 278 278 279 281 284 289 293 295 295 292 289 285 283 282 285 287 287 283 275 264 251 238 228 221 215 211 211 214 216 218 220 221 223 226 228 229 230 233 234 233 233 233 233 233 234 236 238 240 242 243
284 278 279 285 289 288 284 281 279 279 279 278 276 273 272 273 276 279 280 281 283 285 286 283 280 279 279 280 282 284 285 286 286 285 283 281 279 278 278 278 280 283 286 288 290 288 285 281 275 272 273 275 277 279 278 274 270 264 256 246 235 225 218 216 216 218 220 221 223 225 226 229 232 234 237 238 239 238 238 239 240 242 242 243 242
281 283 286 287 287 287 283 279 277 274 274 275 275 274 273 273 274 275 275 276 279 281 283 283 282 281 280 279 279 280 281 282 284 285 285 283 282 281 280 279 278 278 278 279 281 283 284 283 280 276 272 269 266 265 266 267 270 272 272 269 264 257 247 238 232 228 225 222 222 223 224 227 231 233 235 237 238 238 239 239 241 242 243 244 244
283 285 287 287 286 283 278 273 272 272 273 274 274 274 274 273 273 274 274 275 277 277 278 279 280 281 280 278 277 278 279 279 280 281 281 282 282 282 283 282 281 280 278 276 277 277 277 278 279 278 276 275 272 269 265 261 260 261 263 265 267 268 266 262 257 252 246 241 237 235 234 234 236 238 239 240 240 239 239 239 239 240 241 242 243
287 286 284 283 283 282 277 274 274 274 274 274 273 273 273 272 272 273 272 272 273 274 275 276 278 279 278 276 274 275 277 279 280 280 279 279 279 279 279 280 281 281 281 280 279 278 277 275 275 274 273 273 272 272 271 268 265 262 260 259 259 260 262 263 262 258 255 251 248 246 245 243 242 242 243 243 243 242 242 243 244 244 245 245 246
288 287 283 280 279 279 278 277 278 277 277 277 275 274 272 271 271 272 272 271 270 271 272 273 274 273 273 273 273 275 276 278 280 281 280 279 279 278 278 278 278 279 279 279 279 279 278 276 275 273 272 271 269 269 268 268 267 266 264 263 262 261 260 260 259 258 255 252 250 248 247 246 245 245 245 244 244 244 244 244 245 245 246 247 247
283 285 285 280 278 277 277 276 276 278 281 281 278 275 273 272 272 272 272 271 272 272 272 272 272 270 268 268 269 272 274 277 279 280 280 279 278 277 277 277 277 277 277 277 276 275 275 274 273 272 271 271 269 268 267 266 264 263 262 261 262 263 263 263 262 261 258 256 254 252 250 248 247 247 247 247 246 245 245 244 244 244 245 246 246
276 282 287 285 280 278 277 276 277 280 281 279 276 274 272 272 271 271 271 271 271 271 271 271 271 270 268 268 269 271 275 278 281 282 283 282 280 278 277 276 275 275 275 275 274 273 271 270 270 269 268 268 268 268 267 266 265 264 262 259 258 258 259 261 262 262 261 260 258 257 256 254 252 251 250 250 249 249 248 247 246 246 246 247 247
279 282 285 285 281 278 277 278 279 280 278 275 273 273 273 273 273 272 272 272 272 272 272 272 271 270 271 271 274 276 279 282 284 285 286 286 284 282 279 276 274 273 272 272 272 272 270 269 267 266 264 263 263 264 266 266 266 265 264 261 259 257 256 256 256 258 260 260 260 259 258 258 257 255 253 252 251 251 250 250 250 249 249 249 249
281 281 282 282 280 279 279 279 279 278 276 274 274 274 274 275 274 273 272 272 272 273 273 274 274 275 276 278 280 281 283 284 285 286 286 287 286 285 282 279 275 272 270 269 270 270 270 268 266 264 262 260 259 260 261 263 265 265 265 263 262 259 258 256 254 254 255 256 258 258 258 258 258 258 257 255 254 252 251 250 250 250 250 250 250
274 276 279 280 280 280 281 281 280 279 279 278 278 277 276 275 274 272 271 271 271 272 273 275 277 278 280 281 282 283 283 283 284 284 284 284 284 284 283 282 279 276 272 269 267 267 267 267 267 266 264 261 260 259 259 260 261 262 263 263 262 260 259 258 257 255 253 253 254 255 256 256 256 256 256 256 256 254 253 252 250 249 249 250 250
275 277 278 279 280 282 283 284 283 283 283 282 281 280 278 277 276 274 274 273 274 275 276 277 278 280 281 281 282 283 283 284 284 284 284 283 283 283 283 282 282 280 278 275 271 267 265 265 265 265 265 264 263 261 260 259 259 259 260 260 260 259 258 258 258 257 255 254 253 252 253 253 254 254 254 254 254 254 254 253 252 251 250 249 249
277 277 277 279 282 284 285 285 285 285 285 285 284 283 281 280 280 279 279 279 279 278 278 279 280 280 281 282 282 283 284 284 284 285 285 285 285 285 284 284 283 282 281 280 278 274 270 267 264 264 264 265 265 265 264 262 260 259 259 259 259 258 257 256 257 257 257 257 256 255 254 253 253 253 253 252 252 252 252 252 252 251 251 251 251
277 277 278 281 283 284 285 285 284 284 284 284 283 283 283 283 283 282 282 281 281 280 281 281 281 281 282 282 282 283 283 283 283 283 284 284 284 284 284 283 283 282 281 280 279 278 276 274 271 268 265 264 264 264 264 264 263 261 260 258 257 256 255 254 253 254 254 255 256 257 257 256 254 254 253 253 252 251 251 250 250 250 250 250 251
279 280 281 283 284 284 283 282 282 282 281 281 282 283 283 283 283 283 282 283 283 283 283 283 283 283 283 283 283 283 283 283 283 283 282 282 282 282 282 282 281 281 280 279 278 277 276 275 273 272 270 267 265 263 262 262 262 262 260 258 255 253 252 252 252 252 251 251 253 254 256 257 256 255 255 254 253 253 252 251 250 250 250 250 250
282 284 284 285 284 283 282 282 282 282 283 284 284 284 284 283 283 284 284 284 285 285 285 285 285 285 285 285 284 284 284 284 284 283 283 282 282 282 281 281 280 279 279 278 277 276 275 274 272 271 270 269 267 265 264 262 261 260 259 257 255 253 252 252 252 252 252 252 252 253 255 257 258 259 258 257 255 254 253 253 252 252 251 251 250
284 284 284 284 284 284 284 284 285 286 287 287 287 287 286 286 286 286 286 286 286 286 286 286 286 286 286 285 285 284 284 284 283 282 282 281 280 280 280 279 279 278 278 277 277 276 275 274 272 271 269 268 267 266 265 263 262 260 259 258 257 256 254 253 253 253 254 254 255 256 256 257 257 256 255 256 256 254 253 253 253 253 253 253 252
282 282 282 283 283 284 285 287 288 289 289 289 289 289 289 289 289 289 288 288 288 288 287 287 286 286 285 285 284 283 283 282 281 281 280 279 279 278 278 278 277 277 276 276 276 275 274 273 272 271 269 267 266 265 264 263 262 261 260 259 258 258 257 256 256 256 256 257 258 258 258 259 258 256 255 256 257 255 253 252 253 254 254 254 253
Height
5822 5819 5815 5812 5808 5805 5802 5798 5795 5792 5790 5787 5784 5782 5779 5777 5774 5772 5769 5766 5764 5762 5761 5759 5758 5758 5757 5756 5757 5757 5757 5758 5758 5759 5761 5763 5764 5765 5767 5769 5771 5773 5774 5775 5777 5778 5780 5782 5785 5788 5789 5790 5793 5796 5798 5801 5804 5808 5811 5813 5816 5819 5820 5822 5826 5827 5826 5827 5829 5831 5833 5836 5839 5840 5842 5843 5844 5846 5848 5849 5850 5852 5853 5854 5855
5818 5815 5812 5808 5805 5802 5798 5794 5790 5787 5785 5782 5780 5777 5775 5772 5769 5766 5764 5762 5760 5758 5756 5754 5752 5752 5751 5751 5751 5752 5752 5752 5752 5753 5754 5756 5757 5759 5761 5762 5765 5768 5769 5770 5771 5772 5774 5776 5779 5781 5782 5784 5787 5790 5792 5794 5798 5802 5806 5809 5811 5814 5816 5819 5822 5823 5823 5823 5825 5827 5829 5833 5836 5837 5838 5840 5841 5843 5845 5846 5847 5848 5849 5850 5852
5814 5811 5808 5805 5802 5798 5794 5790 5786 5783 5780 5777 5775 5772 5770 5767 5764 5761 5759 5757 5754 5752 5751 5749 5747 5746 5746 5745 5745 5746 5746 5747 5747 5747 5748 5750 5751 5752 5754 5756 5758 5761 5763 5765 5766 5767 5769 5771 5773 5775 5776 5778 5781 5784 5786 5787 5791 5796 5800 5803 5806 5809 5812 5816 5818 5819 5819 5818 5820 5824 5827 5830 5833 5833 5835 5837 5838 5839 5841 5842 5843 5845 5845 5846 5848
5810 5807 5803 5800 5797 5794 5791 5787 5782 5779 5775 5773 5770 5767 5765 5762 5759 5757 5754 5752 5749 5747 5745 5744 5742 5741 5741 5740 5740 5740 5740 5741 5741 5742 5743 5744 5746 5747 5749 5750 5753 5755 5757 5759 5760 5762 5764 5766 5767 5769 5770 5773 5776 5778 5780 5782 5785 5789 5794 5798 5801 5804 5808 5811 5813 5815 5816 5815 5816 5821 5823 5826 5829 5830 5831 5833 5834 5836 5838 5839 5840 5841 5842 5843 5844
5807 5803 5799 5796 5793 5790 5786 5783 5779 5775 5771 5768 5765 5763 5760 5757 5754 5752 5750 5747 5744 5742 5740 5739 5738 5737 5736 5736 5735 5734 5735 5735 5736 5736 5737 5739 5741 5742 5743 5745 5748 5750 5751 5753 5756 5758 5759 5761 5763 5763 5765 5768 5771 5774 5775 5777 5779 5783 5788 5792 5795 5800 5803 5806 5808 5810 5812 5813 5814 5816 5818 5822 5825 5826 5828 5829 5831 5832 5834 5835 5836 5837 5838 5839 5840
5804 5800 5796 5792 5789 5786 5782 5778 5775 5771 5768 5765 5762 5759 5756 5753 5750 5748 5745 5743 5740 5738 5736 5734 5733 5733 5732 5731 5730 5730 5730 5730 5730 5731 5733 5734 5736 5737 5738 5740 5743 5745 5747 5749 5751 5753 5755 5757 5758 5759 5760 5763 5766 5769 5770 5772 5774 5778 5782 5786 5790 5794 5798 5801 5804 5806 5808 5811 5810 5810 5813 5817 5821 5823 5824 5826 5827 5829 5830 5831 5832 5833 5834 5835 5837
5800 5796 5793 5789 5785 5782 5778 5774 5771 5768 5765 5762 5759 5756 5753 5750 5747 5745 5742 5739 5736 5734 5733 5731 5730 5729 5729 5727 5726 5726 5726 5726 5726 5727 5728 5730 5732 5733 5734 5736 5738 5740 5742 5744 5745 5747 5749 5751 5753 5754 5756 5758 5761 5764 5766 5768 5770 5773 5776 5780 5784 5789 5792 5796 5799 5801 5804 5806 5807 5807 5809 5813 5817 5820 5821 5823 5824 5826 5827 5827 5829 5829 5830 5832 5833
5796 5792 5789 5785 5782 5778 5775 5771 5768 5765 5762 5759 5756 5753 5750 5747 5745 5742 5739 5736 5734 5732 5730 5728 5727 5726 5725 5724 5722 5722 5723 5722 5722 5723 5724 5726 5727 5728 5729 5731 5733 5735 5737 5739 5740 5741 5743 5745 5747 5749 5751 5752 5755 5759 5761 5763 5766 5769 5771 5774 5778 5782 5787 5791 5794 5796 5799 5802 5804 5805 5805 5808 5813 5816 5817 5819 5822 5823 5822 5823 5826 5827 5826 5828 5829
5792 5788 5784 5781 5778 5775 5771 5768 5765 5762 5759 5756 5753 5751 5748 5745 5742 5740 5737 5734 5732 5729 5727 5726 5724 5723 5722 5721 5720 5719 5718 5717 5717 5718 5720 5721 5723 5724 5725 5727 5729 5730 5732 5733 5735 5736 5737 5739 5741 5743 5745 5746 5749 5753 5756 5758 5762 5765 5767 5768 5772 5777 5783 5786 5789 5792 5795 5798 5801 5802 5802 5805 5809 5812 5814 5816 5818 5818 5818 5820 5823 5823 5823 5825 5826
5787 5783 5780 5777 5774 5771 5768 5765 5762 5759 5756 5754 5751 5748 5746 5743 5740 5737 5735 5732 5729 5727 5725 5723 5722 5721 5720 5718 5717 5716 5715 5714 5714 5715 5716 5718 5719 5720 5721 5722 5723 5725 5727 5728 5729 5730 5731 5733 5735 5738 5739 5741 5743 5747 5750 5753 5757 5760 5763 5764 5768 5773 5777 5780 5784 5787 5791 5794 5797 5798 5799 5802 5805 5808 5810 5811 5812 5813 5814 5816 5819 5819 5820 5822 5823
5782 5779 5775 5772 5770 5767 5764 5761 5759 5756 5754 5751 5749 5746 5743 5741 5738 5735 5733 5730 5727 5725 5723 5721 5720 5718 5717 5716 5715 5713 5713 5712 5712 5712 5713 5714 5715 5716 5717 5717 5718 5720 5721 5723 5723 5724 5725 5726 5728 5731 5733 5735 5737 5741 5745 5748 5752 5756 5759 5761 5765 5769 5772 5775 5779 5783 5785 5789 5792 5792 5795 5799 5801 5803 5805 5806 5807 5808 5810 5812 5815 5816 5817 5819 5819
5777 5774 5771 5768 5766 5763 5760 5757 5755 5753 5751 5749 5747 5744 5741 5739 5736 5733 5730 5727 5725 5723 5721 5720 5718 5716 5715 5714 5712 5711 5710 5710 5710 5710 5710 5711 5711 5712 5713 5713 5714 5714 5715 5717 5718 5719 5719 5720 5723 5725 5727 5729 5732 5735 5739 5744 5747 5751 5754 5757 5760 5764 5767 5771 5775 5778 5780 5783 5786 5787 5791 5795 5796 5797 5800 5801 5801 5803 5805 5808 5811 5812 5813 5815 5816
5773 5770 5767 5764 5762 5760 5757 5754 5752 5750 5748 5746 5744 5742 5739 5737 5734 5731 5728 5725 5723 5721 5719 5717 5716 5714 5712 5711 5710 5708 5707 5707 5707 5707 5707 5707 5707 5708 5709 5710 5710 5710 5710 5712 5713 5714 5715 5716 5718 5720 5722 5724 5726 5730 5734 5738 5742 5746 5748 5751 5755 5758 5762 5766 5769 5772 5775 5777 5780 5783 5786 5789 5791 5793 5794 5795 5796 5798 5801 5804 5806 5807 5809 5811 5812
5769 5766 5763 5761 5758 5756 5754 5752 5749 5747 5745 5744 5742 5739 5737 5735 5732 5729 5726 5724 5721 5719 5717 5715 5713 5711 5710 5708 5707 5705 5704 5703 5703 5703 5703 5703 5704 5705 5706 5706 5706 5706 5707 5708 5709 5710 5712 5712 5713 5715 5717 5719 5722 5725 5729 5733 5737 5740 5744 5747 5750 5754 5758 5761 5764 5767 5770 5773 5775 5779 5782 5784 5786 5788 5788 5789 5792 5795 5798 5800 5802 5803 5805 5806 5807
5766 5763 5760 5758 5755 5753 5751 5748 5746 5744 5742 5740 5738 5737 5734 5732 5730 5727 5725 5722 5719 5717 5714 5712 5710 5708 5707 5706 5704 5703 5701 5700 5700 5700 5700 5700 5700 5702 5703 5703 5703 5703 5703 5704 5705 5706 5708 5709 5709 5711 5712 5714 5717 5720 5724 5728 5732 5735 5739 5742 5746 5749 5752 5755 5759 5762 5765 5768 5772 5775 5777 5778 5781 5782 5782 5785 5789 5792 5794 5795 5797 5799 5800 5801 5802
5762 5759 5757 5755 5752 5749 5747 5745 5743 5741 5739 5737 5735 5733 5731 5730 5728 5725 5723 5720 5718 5715 5713 5710 5708 5706 5705 5704 5703 5701 5699 5698 5697 5697 5697 5697 5698 5699 5700 5700 5700 5700 5700 5701 5702 5703 5704 5706 5706 5707 5708 5710 5713 5716 5720 5724 5728 5730 5733 5737 5741 5744 5747 5750 5753 5756 5760 5764 5766 5769 5770 5772 5774 5775 5777 5781 5785 5787 5789 5790 5792 5794 5796 5797 5798
5759 5756 5753 5751 5749 5746 5744 5741 5739 5737 5735 5734 5732 5730 5728 5727 5725 5723 5721 5719 5716 5714 5711 5709 5707 5705 5703 5702 5701 5700 5698 5696 5695 5694 5695 5695 5696 5697 5698 5697 5697 5697 5697 5697 5699 5700 5701 5702 5704 5705 5705 5707 5710 5713 5717 5721 5723 5725 5728 5732 5735 5738 5742 5745 5748 5752 5755 5758 5761 5763 5764 5766 5768 5770 5774 5778 5781 5782 5784 5785 5787 5789 5791 5792 5793
5756 5753 5750 5748 5746 5743 5740 5738 5736 5734 5732 5730 5729 5727 5725 5724 5722 5721 5719 5717 5715 5713 5710 5707 5705 5703 5702 5700 5700 5699 5697 5694 5693 5692 5693 5694 5695 5696 5695 5694 5694 5694 5694 5694 5695 5697 5698 5699 5700 5701 5703 5704 5706 5710 5713 5716 5718 5721 5724 5726 5729 5733 5737 5740 5743 5747 5750 5752 5755 5757 5759 5762 5764 5767 5770 5773 5775 5777 5779 5781 5782 5784 5786 5787 5788
5751 5749 5746 5744 5742 5739 5736 5734 5732 5730 5728 5727 5726 5724 5722 5721 5720 5718 5716 5715 5713 5711 5709 5706 5704 5702 5700 5699 5697 5696 5695 5693 5691 5691 5691 5692 5693 5693 5691 5690 5690 5692 5691 5691 5691 5693 5694 5695 5696 5698 5700 5701 5703 5706 5708 5711 5713 5716 5719 5721 5724 5728 5732 5734 5737 5741 5744 5747 5750 5753 5755 5758 5760 5762 5764 5767 5770 5772 5774 5776 5778 5780 5781 5782 5784
5747 5745 5742 5740 5738 5735 5732 5730 5728 5726 5725 5724 5722 5721 5720 5718 5717 5716 5714 5713 5711 5710 5707 5705 5703 5701 5699 5697 5695 5694 5694 5692 5690 5690 5690 5691 5691 5690 5689 5688 5688 5688 5688 5688 5687 5687 5688 5689 5691 5694 5696 5698 5700 5702 5704 5706 5708 5711 5714 5716 5719 5723 5726 5728 5732 5735 5738 5742 5746 5749 5751 5752 5753 5756 5759 5761 5764 5767 5769 5771 5773 5775 5776 5779 5780
5743 5741 5739 5737 5734 5731 5728 5726 5724 5723 5722 5721 5720 5718 5717 5716 5715 5713 5712 5710 5709 5708 5706 5704 5702 5700 5698 5696 5694 5692 5691 5690 5689 5688 5688 5688 5688 5687 5687 5687 5686 5686 5685 5685 5685 5683 5684 5684 5685 5687 5690 5693 5696 5698 5700 5702 5704 5706 5709 5712 5715 5718 5721 5724 5727 5730 5734 5738 5740 5742 5744 5745 5748 5751 5754 5756 5759 5761 5764 5766 5768 5770 5771 5774 5775
5739 5737 5735 5733 5731 5727 5725 5723 5721 5720 5719 5718 5717 5716 5714 5713 5712 5711 5710 5709 5707 5706 5705 5703 5701 5699 5697 5695 5693 5691 5689 5689 5687 5686 5686 5685 5685 5685 5685 5685 5685 5684 5683 5683 5683 5683 5683 5683 5682 5684 5687 5691 5692 5693 5697 5700 5702 5704 5706 5709 5712 5715 5717 5720 5722 5725 5730 5734 5735 5737 5739 5741 5744 5746 5748 5751 5753 5754 5757 5760 5762 5764 5766 5768 5770
5735 5732 5731 5730 5727 5724 5722 5720 5718 5717 5716 5715 5714 5713 5712 5711 5710 5709 5708 5707 5705 5705 5704 5702 5700 5698 5696 5694 5692 5690 5688 5687 5686 5685 5684 5683 5683 5683 5683 5683 5682 5682 5681 5681 5682 5682 5681 5682 5682 5684 5687 5689 5690 5691 5694 5698 5699 5701 5703 5706 5708 5711 5714 5717 5719 5722 5726 5730 5731 5732 5735 5736 5737 5739 5742 5745 5746 5748 5751 5754 5757 5759 5761 5763 5766
5732 5729 5727 5726 5724 5721 5719 5717 5716 5715 5713 5712 5711 5710 5709 5708 5708 5707 5706 5705 5703 5703 5702 5700 5699 5697 5695 5693 5691 5689 5687 5685 5684 5683 5683 5682 5681 5681 5681 5681 5680 5680 5680 5679 5679 5680 5680 5680 5681 5683 5685 5688 5689 5690 5692 5694 5695 5697 5699 5702 5705 5708 5711 5714 5717 5720 5723 5724 5725 5726 5728 5729 5731 5734 5737 5740 5741 5743 5745 5749 5752 5754 5757 5759 5761
5728 5725 5723 5722 5721 5718 5716 5714 5713 5712 5711 5710 5709 5708 5707 5706 5705 5704 5704 5702 5701 5700 5700 5698 5697 5695 5694 5692 5690 5688 5686 5684 5683 5682 5681 5680 5680 5679 5679 5679 5678 5678 5678 5678 5678 5678 5678 5678 5679 5681 5683 5685 5687 5688 5690 5691 5693 5694 5697 5699 5702 5704 5707 5711 5714 5716 5717 5719 5720 5721 5722 5724 5726 5729 5732 5735 5737 5738 5741 5745 5748 5750 5752 5755 5756
5724 5722 5720 5718 5717 5715 5712 5711 5710 5709 5708 5707 5706 5705 5704 5703 5702 5702 5701 5700 5699 5698 5697 5696 5695 5693 5692 5691 5689 5687 5685 5683 5682 5680 5679 5679 5678 5678 5677 5677 5677 5677 5676 5676 5676 5677 5677 5677 5678 5679 5680 5682 5684 5685 5687 5688 5690 5692 5694 5696 5699 5701 5704 5707 5710 5711 5713 5715 5716 5717 5719 5720 5722 5724 5727 5731 5733 5735 5737 5741 5743 5746 5748 5750 5752
5721 5719 5716 5715 5714 5712 5709 5708 5707 5706 5706 5705 5704 5703 5702 5701 5700 5699 5699 5698 5697 5696 5695 5694 5692 5691 5690 5689 5688 5686 5684 5683 5681 5679 5678 5677 5677 5676 5676 5676 5676 5676 5675 5675 5675 5676 5676 5676 5677 5678 5679 5680 5682 5683 5684 5686 5687 5688 5690 5692 5695 5697 5700 5702 5705 5707 5709 5711 5713 5715 5716 5717 5719 5721 5724 5727 5729 5731 5733 5736 5739 5741 5743 5745 5747
5717 5715 5713 5712 5711 5709 5707 5706 5705 5704 5703 5702 5701 5700 5699 5698 5697 5697 5697 5696 5695 5694 5693 5692 5690 5689 5688 5687 5686 5685 5684 5682 5680 5679 5677 5676 5675 5675 5674 5674 5675 5675 5674 5674 5674 5675 5675 5675 5676 5677 5678 5679 5680 5681 5682 5683 5684 5685 5687 5688 5690 5692 5695 5697 5700 5702 5704 5706 5709 5711 5713 5715 5717 5719 5721 5723 5725 5727 5729 5732 5734 5736 5739 5741 5743
5712 5711 5709 5708 5707 5706 5705 5703 5702 5701 5700 5700 5699 5698 5696 5695 5694 5694 5694 5694 5693 5692 5691 5689 5688 5687 5686 5685 5684 5684 5683 5682 5680 5679 5677 5676 5675 5674 5673 5673 5673 5673 5673 5673 5673 5673 5674 5674 5675 5676 5677 5678 5679 5680 5681 5682 5683 5684 5685 5686 5688 5689 5691 5693 5696 5699 5701 5703 5704 5706 5708 5711 5713 5715 5716 5718 5720 5722 5725 5726 5728 5731 5733 5736 5738
5706 5706 5705 5704 5704 5703 5702 5700 5699 5698 5698 5697 5696 5695 5694 5693 5691 5691 5691 5691 5691 5690 5689 5688 5686 5685 5684 5684 5683 5682 5681 5681 5680 5678 5677 5676 5675 5673 5673 5672 5672 5672 5672 5672 5672 5672 5672 5672 5673 5674 5675 5677 5678 5678 5679 5680 5681 5682 5683 5684 5686 5687 5689 5691 5693 5695 5698 5699 5701 5702 5704 5706 5708 5710 5712 5714 5716 5718 5720 5721 5723 5725 5727 5730 5731
5701 5701 5701 5701 5700 5700 5699 5697 5696 5695 5695 5694 5693 5692 5691 5690 5689 5689 5689 5688 5688 5688 5687 5686 5685 5683 5682 5682 5681 5680 5679 5679 5678 5677 5676 5676 5675 5673 5672 5672 5671 5671 5671 5671 5671 5670 5670 5670 5671 5672 5672 5673 5675 5676 5677 5678 5679 5680 5681 5682 5683 5685 5686 5688 5690 5692 5694 5696 5697 5699 5700 5702 5704 5705 5707 5709 5710 5712 5714 5716 5717 5719 5721 5723 5725
5698 5698 5697 5697 5697 5697 5695 5694 5693 5692 5692 5691 5690 5689 5688 5686 5686 5686 5686 5686 5685 5685 5684 5683 5683 5682 5681 5680 5679 5678 5678 5677 5676 5676 5675 5675 5674 5673 5672 5671 5671 5670 5670 5670 5669 5669 5669 5669 5669 5669 5669 5670 5671 5672 5673 5675 5676 5677 5678 5679 5681 5682 5684 5685 5687 5689 5691 5693 5694 5695 5697 5698 5699 5701 5703 5704 5706 5708 5709 5711 5712 5714 5716 5717 5719
5695 5694 5694 5694 5694 5693 5692 5691 5690 5689 5689 5688 5687 5686 5684 5683 5682 5681 5682 5682 5683 5682 5682 5681 5680 5679 5679 5678 5677 5677 5676 5675 5675 5674 5673 5673 5672 5672 5671 5670 5670 5669 5669 5669 5668 5668 5668 5668 5668 5668 5668 5668 5669 5670 5671 5672 5673 5674 5675 5676 5678 5679 5681 5682 5684 5685 5687 5688 5690 5691 5692 5694 5695 5697 5698 5700 5701 5703 5705 5706 5707 5709 5711 5713 5714
5691 5690 5690 5690 5690 5689 5688 5687 5686 5686 5685 5684 5683 5682 5681 5680 5680 5679 5679 5679 5679 5679 5679 5678 5678 5677 5676 5676 5676 5675 5674 5674 5673 5672 5672 5671 5670 5669 5669 5669 5668 5668 5668 5668 5667 5667 5667 5667 5667 5667 5667 5668 5668 5669 5669 5670 5670 5671 5672 5672 5674 5675 5677 5678 5680 5681 5683 5684 5685 5686 5688 5689 5691 5692 5693 5695 5696 5698 5699 5700 5702 5703 5705 5707 5708
5686 5685 5685 5685 5685 5685 5684 5684 5683 5682 5681 5681 5680 5679 5678 5678 5677 5677 5677 5676 5676 5675 5675 5675 5675 5675 5674 5673 5673 5673 5672 5672 5671 5671 5670 5669 5668 5668 5667 5667 5667 5667 5666 5666 5666 5666 5666 5665 5666 5666 5666 5667 5667 5668 5668 5669 5669 5669 5669 5670 5670 5671 5672 5674 5675 5677 5678 5680 5681 5682 5684 5685 5686 5687 5688 5689 5690 5691 5693 5694 5696 5698 5699 5701 5703
5682 5681 5681 5681 5681 5681 5680 5680 5679 5678 5677 5677 5677 5676 5676 5675 5675 5674 5674 5674 5673 5673 5672 5672 5671 5671 5671 5671 5670 5670 5670 5670 5669 5669 5668 5668 5667 5666 5665 5665 5665 5665 5665 5664 5664 5664 5664 5664 5664 5665 5665 5665 5665 5665 5666 5667 5667 5668 5668 5668 5668 5669 5669 5670 5671 5672 5673 5675 5676 5678 5679 5680 5681 5682 5682 5683 5684 5686 5687 5689 5690 5692 5693 5695 5696
5678 5678 5678 5677 5677 5676 5676 5675 5674 5674 5674 5674 5674 5674 5673 5672 5672 5671 5671 5670 5670 5669 5669 5668 5668 5667 5667 5667 5667 5667 5667 5667 5666 5666 5666 5665 5664 5664 5663 5663 5663 5663 5663 5663 5662 5662 5662 5662 5662 5663 5663 5663 5663 5663 5664 5664 5665 5665 5665 5666 5666 5667 5667 5668 5668 5669 5670 5671 5672 5673 5674 5676 5677 5678 5679 5680 5681 5682 5683 5684 5685 5686 5687 5689 5690
5675 5674 5674 5674 5673 5672 5671 5671 5671 5671 5671 5670 5671 5671 5670 5669 5668 5667 5667 5666 5666 5666 5666 5665 5665 5664 5664 5664 5664 5663 5663 5663 5663 5663 5663 5662 5662 5661 5661 5660 5660 5660 5660 5660 5660 5660 5660 5660 5659 5659 5660 5660 5661 5661 5661 5662 5662 5662 5663 5663 5663 5664 5664 5665 5665 5666 5667 5668 5669 5670 5671 5672 5673 5674 5675 5676 5678 5678 5679 5680 5681 5682 5683 5685 5686
5671 5670 5671 5671 5670 5669 5668 5667 5667 5667 5667 5667 5667 5667 5667 5666 5664 5663 5663 5662 5662 5662 5662 5662 5662 5661 5661 5660 5660 5660 5660 5660 5659 5659 5659 5659 5658 5658 5658 5657 5657 5657 5657 5657 5657 5657 5657 5657 5657 5657 5656 5657 5657 5657 5658 5658 5659 5660 5660 5661 5661 5661 5662 5662 5663 5663 5664 5665 5665 5666 5667 5668 5669 5670 5671 5673 5674 5675 5676 5677 5677 5679 5680 5681 5682
5668 5667 5667 5667 5667 5666 5665 5664 5664 5664 5664 5664 5663 5663 5662 5662 5661 5660 5660 5659 5659 5658 5658 5658 5658 5658 5658 5657 5657 5657 5656 5656 5656 5656 5656 5655 5655 5655 5654 5654 5654 5653 5653 5653 5654 5654 5654 5654 5654 5654 5653 5653 5653 5653 5654 5654 5655 5656 5657 5657 5658 5658 5659 5660 5660 5661 5661 5661 5662 5662 5663 5664 5665 5666 5667 5668 5669 5670 5671 5672 5673 5674 5675 5676 5677
5664 5663 5663 5663 5663 5662 5661 5661 5661 5661 5660 5660 5659 5659 5658 5658 5658 5657 5657 5656 5655 5655 5654 5654 5654 5654 5654 5654 5654 5653 5653 5652 5652 5652 5652 5652 5651 5651 5651 5650 5650 5650 5649 5649 5650 5650 5650 5650 5650 5650 5650 5650 5650 5650 5650 5650 5650 5651 5652 5653 5654 5654 5655 5655 5656 5657 5657 5658 5658 5659 5659 5660 5660 5661 5662 5663 5664 5665 5666 5667 5668 5670 5671 5672 5673
5660 5659 5659 5659 5659 5658 5657 5657 5656 5656 5656 5656 5655 5655 5654 5654 5654 5654 5653 5652 5651 5651 5651 5651 5651 5650 5650 5650 5649 5649 5648 5648 5648 5647 5647 5647 5647 5647 5647 5646 5646 5646 5645 5645 5645 5645 5645 5645 5645 5646 5646 5646 5646 5646 5646 5646 5646 5646 5647 5647 5648 5649 5650 5651 5651 5652 5652 5653 5654 5654 5655 5655 5656 5656 5657 5658 5659 5660 5661 5662 5664 5665 5666 5667 5668
5657 5656 5655 5655 5655 5654 5654 5653 5653 5652 5652 5652 5651 5651 5651 5651 5650 5650 5649 5649 5648 5647 5647 5646 5646 5646 5646 5645 5645 5644 5644 5643 5643 5642 5642 5642 5641 5641 5641 5641 5641 5641 5641 5641 5640 5640 5640 5640 5640 5640 5641 5641 5641 5642 5642 5642 5642 5642 5642 5642 5643 5643 5644 5645 5646 5647 5647 5648 5649 5649 5649 5650 5650 5651 5652 5653 5654 5655 5656 5657 5658 5660 5661 5662 5663
5654 5653 5652 5651 5651 5651 5650 5650 5649 5649 5648 5648 5647 5647 5647 5646 5646 5646 5645 5645 5644 5644 5643 5642 5642 5641 5641 5640 5640 5639 5639 5638 5638 5637 5637 5637 5636 5636 5636 5635 5635 5635 5635 5635 5635 5635 5634 5634 5634 5634 5634 5635 5635 5636 5636 5636 5637 5637 5637 5637 5638 5638 5638 5639 5639 5640 5642 5642 5643 5644 5644 5644 5645 5645 5646 5647 5648 5649 5650 5651 5652 5654 5655 5656 5657
5650 5649 5648 5648 5648 5647 5646 5646 5645 5645 5644 5644 5643 5643 5643 5642 5642 5641 5641 5641 5640 5640 5639 5638 5637 5636 5636 5635 5634 5633 5633 5632 5632 5632 5631 5631 5630 5630 5630 5630 5629 5629 5629 5629 5629 5629 5629 5629 5628 5628 5628 5628 5628 5629 5629 5630 5630 5631 5631 5631 5632 5632 5633 5633 5633 5634 5635 5636 5637 5638 5638 5638 5639 5640 5640 5641 5642 5642 5643 5644 5645 5647 5648 5649 5650
5646 5646 5645 5644 5644 5643 5643 5642 5641 5641 5640 5640 5639 5639 5639 5638 5638 5637 5637 5636 5636 5635 5634 5633 5633 5632 5631 5630 5629 5628 5627 5627 5626 5626 5625 5624 5624 5624 5624 5624 5623 5622 5622 5622 5622 5622 5622 5623 5622 5622 5622 5622 5622 5622 5622 5623 5624 5624 5624 5625 5625 5625 5626 5626 5627 5627 5628 5628 5629 5630 5631 5632 5633 5633 5634 5635 5635 5636 5636 5637 5638 5639 5640 5642 5643
5642 5641 5641 5641 5640 5640 5639 5638 5637 5637 5636 5635 5635 5634 5634 5634 5633 5633 5632 5631 5631 5630 5629 5628 5627 5626 5625 5624 5623 5622 5622 5621 5621 5620 5619 5618 5618 5617 5617 5617 5617 5616 5615 5615 5615 5615 5615 5615 5615 5615 5615 5616 5616 5615 5615 5616 5616 5617 5617 5617 5618 5618 5618 5619 5619 5619 5620 5621 5621 5622 5623 5624 5625 5626 5627 5627 5628 5629 5629 5630 5631 5632 5633 5634 5635
5638 5637 5637 5637 5636 5636 5635 5634 5633 5632 5631 5631 5630 5630 5630 5629 5629 5628 5627 5626 5625 5624 5623 5622 5621 5620 5619 5618 5617 5616 5616 5615 5614 5613 5613 5612 5611 5610 5610 5610 5610 5609 5608 5608 5607 5607 5607 5608 5608 5608 5608 5608 5608 5608 5608 5608 5609 5609 5609 5610 5610 5610 5611 5611 5611 5612 5612 5613 5613 5614 5615 5616 5617 5618 5619 5620 5620 5621 5622 5623 5624 5625 5626 5627 5628
5634 5633 5633 5632 5632 5631 5630 5629 5628 5627 5626 5626 5625 5625 5625 5624 5623 5623 5622 5621 5620 5618 5617 5616 5615 5614 5613 5612 5611 5610 5609 5608 5607 5606 5605 5605 5604 5603 5603 5602 5602 5601 5600 5600 5599 5599 5599 5600 5600 5600 5600 5600 5600 5600 5600 5601 5601 5601 5601 5602 5602 5602 5602 5603 5604 5604 5605 5605 5606 5606 5607 5608 5609 5610 5611 5612 5612 5613 5613 5614 5615 5616 5617 5619 5620
5630 5629 5629 5628 5627 5626 5624 5623 5622 5622 5621 5621 5620 5619 5619 5618 5618 5617 5616 5615 5613 5612 5611 5610 5608 5607 5606 5605 5604 5603 5602 5601 5600 5599 5598 5597 5596 5596 5595 5595 5594 5594 5593 5592 5591 5591 5591 5591 5591 5591 5592 5592 5591 5591 5592 5592 5593 5593 5593 5593 5594 5594 5594 5595 5595 5596 5597 5597 5598 5599 5600 5601 5602 5603 5603 5603 5604 5604 5605 5606 5607 5608 5609 5610 5611
5626 5625 5624 5623 5622 5621 5620 5618 5617 5617 5616 5615 5614 5614 5613 5612 5611 5610 5609 5608 5607 5605 5604 5603 5601 5600 5599 5598 5597 5596 5595 5594 5592 5591 5590 5590 5589 5588 5588 5587 5586 5586 5585 5584 5583 5583 5583 5583 5583 5583 5583 5583 5583 5583 5583 5584 5584 5585 5585 5585 5585 5586 5586 5586 5586 5587 5588 5589 5590 5591 5592 5593 5594 5595 5595 5595 5596 5596 5597 5598 5599 5600 5601 5601 5602